Regional Weather Roundup
Issued by NWS Little Rock, AR

Home | Current Version | Previous Version | Graphics & Text | Print | Product List | Glossary On
Versions: 1 2 3 4 5 6 7 8 9 10 11 12 13 14 15 16 17 18 19 20 21 22 23 24 25 26 27 28 29 30 31 32 33 34 35 36 37 38 39 40 41 42 43 44 45 46 47 48 49 50
000
ASUS44 KLZK 251510
RWRLZK
ARKANSAS STATE WEATHER ROUNDUP
NATIONAL WEATHER SERVICE LITTLE ROCK AR
ISSUED BY NATIONAL WEATHER SERVICE MEMPHIS TN
1000 AM CDT WED APR 25 2018

NOTE: "FAIR" INDICATES FEW OR NO CLOUDS BELOW 12,000 FEET WITH NO
SIGNIFICANT WEATHER AND/OR OBSTRUCTIONS TO VISIBILITY.

ARZ001-003-010-029-251600-
NORTHWEST ARKANSAS

CITY           SKY/WX    TMP DP  RH WIND       PRES   REMARKS
FORT SMITH     LGT RAIN  56  52  86 W6        30.14R
HARRISON       CLOUDY    55  46  71 NW10      30.14R
BENTONVILLE    RAIN      53  50  89 W5        30.19R
ROGERS         RAIN      52  50  93 NW5       30.17R
SILOAM SPGS    LGT RAIN  52  51  97 NW10      30.19S FOG
HIGHFILL       RAIN      52  49  89 NW6       30.18R FOG
SPRINGDALE     LGT RAIN  52  52 100 N6        30.16R FOG
$$

ARZ004-005-016-251600-
NORTH CENTRAL ARKANSAS

CITY           SKY/WX    TMP DP  RH WIND       PRES   REMARKS
BATESVILLE     PTSUNNY   66  49  54 NW8       30.06F
FLIPPIN        PTSUNNY   57  45  64 NW6       30.10S
MTN HOME       LGT RAIN  54  47  77 N6        30.08
$$

ARZ040-041-251600-
WEST CENTRAL ARKANSAS

CITY           SKY/WX    TMP DP  RH WIND       PRES   REMARKS
MOUNT IDA      CLOUDY    65  56  72 VRB5      30.06F
$$

ARZ017-025-026-028-251600-
NORTHEAST ARKANSAS

CITY           SKY/WX    TMP DP  RH WIND       PRES   REMARKS
JONESBORO      FAIR      69  56  62 NW9       30.04R
NEWPORT        FAIR      69  57  65 NW9       30.05S
WALNUT RIDGE   FAIR      67  51  56 NW7       30.04S
BLYTHEVILLE    FAIR      68  56  65 N7        30.04R
NW BLYTHEVILLE SUNNY     68  55  64 N6        30.04R
$$

ARZ022-033-042-044-251600-
CENTRAL ARKANSAS

CITY           SKY/WX    TMP DP  RH WIND       PRES   REMARKS
LITTLE ROCK    PTSUNNY   70  58  65 SW9       30.07R
SEARCY         FAIR      69  60  73 W7        30.06F
HOT SPRINGS    PTSUNNY   66  58  75 VRB3      30.07R
RUSSELLVILLE   CLOUDY    61  49  64 W9        30.09R
$$

ARZ036-251600-
EAST ARKANSAS

CITY           SKY/WX    TMP DP  RH WIND       PRES   REMARKS
WEST MEMPHIS   FAIR      66  60  81 VRB5      30.04R
$$

ARZ050-070-073-251600-
SOUTHWEST ARKANSAS

CITY           SKY/WX    TMP DP  RH WIND       PRES   REMARKS
TEXARKANA      CLOUDY    62  55  77 CALM      30.05S
EL DORADO      FAIR      67  59  75 S8        30.06S
DEQUEEN        PTSUNNY   65  58  78 N5        30.04R
$$

ARZ056-057-069-251600-
SOUTHEAST ARKANSAS

CITY           SKY/WX    TMP DP  RH WIND       PRES   REMARKS
PINE BLUFF     FAIR      69  56  62 VRB5      30.06R
STUTTGART      FAIR      68  58  70 W6        30.06S
MONTICELLO     FAIR      70  55  59 S5        30.05S
$$




USA.gov is the U.S. government's official web portal to all federal, state and local government web resources and services.